#timestamp,LO_Frequency,Hit,StdDev 
1679889615.6,286046997.8,N
1679889635.5,286046997.8,N
1679889655.3,286046999.0,N
1679889675.2,286046997.6,N
1679889695.9,286046996.6,N
1679889715.7,286046993.5,Y
1679889735.6,286046993.9,P
1679889755.4,286046992.1,P
1679889775.2,286046992.2,N
1679889795.1,286046996.0,N
1679889796.0,286046996.0,N
1679889815.8,286046993.8,N
1679889835.7,286046994.2,N
1679889855.5,286046995.9,N
1679889875.3,286046995.6,N
1679889895.2,286046995.3,N
1679889915.0,286046997.1,N
1679889915.9,286046997.1,N
1679889935.7,286046997.4,N
1679889955.6,286046999.5,N
1679889975.4,286046998.6,N
1679889995.3,286047000.9,N
1679890015.1,286047002.2,N
1679890016.0,286047002.2,N
1679890035.8,286047002.5,N
1679890055.7,286047002.1,N
1679890075.5,286047002.6,N
1679890095.3,286047002.6,N
1679890115.2,286047002.1,N
1679890135.0,286047002.2,N
1679890135.9,286047002.2,N
1679890155.8,286047000.9,N
1679890175.6,286047000.3,N
1679890195.4,286046999.1,N
1679890215.3,286046999.6,N
1679890235.1,286046997.4,N
1679890255.9,286046997.6,N
1679890275.7,286046997.0,N
1679890295.5,286046997.6,N
1679890315.4,286046997.1,N
1679890335.2,286046998.9,N
1679890355.0,286047000.4,N
1679890355.9,286047000.4,N
1679890375.8,286047000.0,N
1679890395.6,286047002.6,N
1679890415.5,286047004.1,N
1679890435.3,286047005.5,N
1679890455.1,286047003.5,N
1679890475.9,286047002.0,N
1679890495.7,286047000.2,N
1679890515.6,286047000.6,N
1679890535.4,286046998.5,N
1679890555.2,286047000.4,N
1679890575.1,286047002.8,N
1679890576.0,286047002.8,N
1679890595.8,286047002.5,N
1679890615.6,286047002.1,N
1679890635.5,286047002.5,N
1679890655.3,286047001.8,N
1679890675.2,286047004.2,N
1679890695.0,286047003.8,N
1679890695.9,286047003.8,N
1679890715.7,286047003.8,N
1679890735.6,286047001.7,N
1679890755.4,286047002.2,N
1679890775.3,286047001.5,N
1679890795.1,286047002.6,N
1679890796.0,286047002.6,N
1679890815.8,286047002.1,N
1679890835.7,286047004.2,N
1679890855.5,286047001.5,N
1679890875.3,286047002.1,N
1679890895.2,286047002.6,N
1679890915.0,286047002.3,N
1679890915.9,286047002.3,N
1679890935.8,286046999.7,N
1679890955.6,286046999.7,N
1679890975.4,286047002.0,N
1679890995.3,286047000.9,N
1679891015.1,286046999.6,N
1679891035.9,286046996.9,N
1679891055.7,286046993.6,Y
1679891075.5,286046993.6,P
1679891095.4,286046995.8,N
1679891115.2,286046997.7,N
1679891165.1,286046998.1,E
1679891175.9,286047000.8,N
1679891195.7,286047002.4,P
1679891215.6,286046998.2,N
1679891235.4,286047001.1,N
1679891255.2,286047000.7,N
1679891275.1,286047001.2,N
1679891276.0,286047001.2,N
1679891295.8,286047000.3,N
1679891315.7,286046999.8,N
1679891335.5,286047002.7,N
1679891355.3,286047002.4,N
1679891375.2,286046999.7,N
1679891395.0,286047000.7,N
1679891395.9,286047000.7,N
1679891415.8,286047000.6,N
1679891435.6,286047000.3,N
1679891455.4,286047000.4,N
1679891475.3,286047002.1,N
1679891495.1,286047002.5,N
1679891515.8,286047000.4,N
1679891535.7,286046998.9,N
1679891555.5,286046998.2,N
1679891575.4,286047000.6,N
1679891595.2,286047001.7,N
1679891615.0,286047002.0,N
1679891615.9,286047002.0,N
1679891635.8,286047002.1,N
1679891655.6,286047002.5,N
1679891675.4,286047000.6,N
1679891695.3,286047000.6,N
1679891715.1,286047000.0,N
1679891735.9,286047000.2,N
1679891755.7,286047000.2,N
1679891775.5,286047000.1,N
1679891795.4,286047000.1,N
1679891815.2,286047002.4,N
1679891835.0,286047002.2,N
1679891835.9,286047002.2,N
1679891855.8,286047000.2,N
1679891875.6,286047002.2,N
1679891895.5,286047002.4,N
1679891915.3,286046999.8,N
1679891935.1,286047002.8,N
1679891955.9,286047002.1,N
1679891975.7,286047002.0,N
1679891995.5,286047006.0,Y
1679892015.4,286047003.6,P
1679892035.2,286047003.4,N
1679892055.1,286047003.3,N
1679892056.0,286047003.3,Y
1679892075.8,286047000.9,P
1679892095.7,286046998.5,N
1679892115.5,286046998.8,N
1679892135.3,286046997.7,N
1679892155.2,286046997.0,N
1679892175.0,286046996.8,N
1679892175.9,286046996.8,N
1679892195.7,286047011.9,Y
1679892215.6,286046996.7,P
1679892235.4,286046999.6,N
1679892255.3,286047001.2,N
1679892275.1,286046998.2,N
1679892276.0,286046998.2,N
1679892295.8,286046999.6,N
1679892315.7,286046995.5,Y
1679892335.5,286046996.7,P
1679892355.4,286046998.9,N
1679892375.2,286046998.2,N
1679892395.0,286046998.4,N
1679892395.9,286046998.4,N
1679892415.8,286046998.7,N
1679892435.6,286046999.3,N
1679892455.4,286047000.6,N
1679892475.3,286047000.5,N
1679892495.1,286047002.8,N
1679892515.9,286047002.2,N
1679892535.7,286047002.0,N
1679892555.5,286046999.8,N
1679892575.4,286046998.3,N
1679892595.2,286046998.3,N
1679892615.0,286046998.2,N
1679892615.9,286046998.2,N
1679892635.8,286046999.1,N
1679892655.6,286046998.6,N
1679892675.5,286046999.1,N
1679892695.3,286046995.1,Y
1679892715.1,286046993.4,P
1679892735.9,286046995.7,N
1679892755.7,286046998.2,N
1679892775.5,286047000.6,N
1679892795.4,286047001.1,N
1679892815.2,286047000.0,N
1679892835.1,286047000.2,N
1679892836.0,286047000.2,N
1679892855.8,286047002.7,N
1679892875.6,286047001.0,N
1679892895.5,286046998.5,N
1679892915.3,286047001.1,N
1679892935.1,286046999.9,N
1679892955.9,286047000.4,N
1679892975.7,286046998.1,N
1679892995.6,286047002.8,N
1679893015.4,286046998.9,N
1679893035.2,286046999.4,N
1679893055.1,286046996.5,N
1679893056.0,286046996.5,N
1679893075.8,286046999.6,N
1679893095.6,286046995.3,N
1679893115.5,286046995.7,N
1679893165.3,286046996.5,E
1679893175.3,286047000.8,N
1679893195.1,286047001.8,P
1679893196.0,286047001.8,P
